Regional Weather Roundup
Issued by NWS

Home | Current Version | Previous Version | Text Only | Print | Product List | Glossary On
Versions: 1 2 3 4 5 6 7 8 9 10 11 12 13 14 15 16 17 18 19 20 21 22 23 24 25 26 27 28 29 30 31 32 33 34 35 36 37 38 39 40 41 42 43 44 45 46 47 48 49 50
000
ASCA44 KEWX 250520
RWRMX

LATIN AMERICA AND CARIBBEAN REGIONAL WEATHER ROUNDUP
NATIONAL WEATHER SERVICE AUSTIN/SAN ANTONIO TX
1200 AM CDT WED MAY 25 2016

NOTE: "FAIR" INDICATED FEW OR NO CLOUDS BELOW 12,000 FEET WITH NO
SIGNIFICANT WEATHER AND/OR OBSTRUCTIONS TO VISIBILITY.

BAJA CALIFORNIA

CITY           SKY/WX    TMP DP  RH WIND       PRES   REMARKS
LA PAZ         MOCLDY    73  54  49 SW9       29.95R
MEXICALI       CLEAR     68  43  40 W20       29.90R
S.J. DEL CABO  MOCLDY    77  70  78 SE9       29.94R
TIJUANA        MOCLDY    59  50  72 W7        30.08R

NORTHWESTERN MEXICO

CITY           SKY/WX    TMP DP  RH WIND       PRES   REMARKS
CULIACAN       CLOUDY    81  68  65 CALM      29.93R
HERMOSILLO     CLEAR     73  41  31 CALM      29.94R
LOS MOCHIS       N/A    N/A N/A N/A MISG        N/A

NORTHEASTERN MEXICO

CITY           SKY/WX    TMP DP  RH WIND       PRES   REMARKS
MONCLOVA         N/A    N/A N/A N/A MISG        N/A
MONTERREY      MOCLDY    82  73  74 E9        29.93S
REYNOSA        PTCLDY    79  73  83 S3        29.94R
SALTILLO       PTCLDY    75  57  53 CALM      30.19S
CD. VICTORIA     N/A    N/A N/A N/A MISG        N/A

WESTERN MEXICO

CITY           SKY/WX    TMP DP  RH WIND       PRES   REMARKS
AGUASCALIENTES CLEAR     70  23  17 S5        30.27R
COLIMA           N/A    N/A N/A N/A MISG        N/A
DEL BAJIO      CLEAR     73  50  43 SE7       30.31R
GUADALAJARA    CLEAR     79  46  31 W6        30.20R
MAZATLAN       MOCLDY    75  68  78 SE5       29.92S
P. VALLARTA    CLEAR     79  75  89 S3        29.94R
URUAPAN          N/A    N/A N/A N/A MISG        N/A
ZACATECAS        N/A    N/A N/A N/A MISG        N/A

CENTRAL MEXICO

CITY           SKY/WX    TMP DP  RH WIND       PRES   REMARKS
CUERNAVACA       N/A    N/A N/A N/A MISG        N/A
MEXICO CITY    CLOUDY    64  54  68 S12       30.45F
MORELIA        PTCLDY    66  54  63 CALM      30.28R
POZA RICA        N/A    N/A N/A N/A MISG        N/A
QUERETARO      PTCLDY    72  50  46 E13       30.40R
S. LUIS POTOSI PTCLDY    72  61  68 S12       30.28R
TAMPICO        MOCLDY    82  79  89 E7        29.94R HX  93
TOLUCA         MOCLDY    61  50  67 E8        30.54R

SOUTHERN MEXICO

CITY           SKY/WX    TMP DP  RH WIND       PRES   REMARKS
ACAPULCO       MOCLDY    84  79  84 W3        29.94R HX  96
B. DE HUATULCO   N/A    N/A N/A N/A MISG        N/A
P. ESCONDIDO     N/A    N/A N/A N/A MISG        N/A
VERACRUZ         N/A    N/A N/A N/A MISG        N/A

YUCATAN PENINSULA

CITY           SKY/WX    TMP DP  RH WIND       PRES   REMARKS
CAMPECHE       CLEAR     90  75  62 E6        29.92R HX 100
CANCUN         PTCLDY    82  79  89 E8        30.04S HX  93
CHETUMAL         N/A    N/A N/A N/A MISG        N/A
CD. DEL CARMEN   N/A    N/A N/A N/A MISG        N/A
COZUMEL        PTCLDY    77  75  94 E6        30.04R
MERIDA         CLEAR     86  73  66 E12       29.98S HX  93
MINATITLAN       N/A    N/A N/A N/A MISG        N/A
TAPACHULA      MOCLDY    81  79  94 CALM      29.91R
TUX. GUTIERREZ MOCLDY    81  66  61 S13       30.02R
VILLAHERMOSA   CLEAR     82  79  89 NE5       29.93R HX  93

CENTRAL AMERICA

CITY           SKY/WX    TMP DP  RH WIND       PRES   REMARKS
MANAGUA        PTCLDY    86  77  74 SE7       29.92S HX  97

CARIBBEAN

CITY           SKY/WX    TMP DP  RH WIND       PRES   REMARKS
ARUBA          PTCLDY    82  75  78 E23       29.94S
CURACAO        PTCLDY    82  75  78 E17       29.97S
KINGSTON       TSTM      77  73  88 W6        29.97F
NASSAU         PTCLDY    79  75  89 NE9       30.13F
SAN JUAN       PTCLDY    81  75  83 E5        30.09F
SANTO DOMINGO  PTCLDY    75  73  94 NE5       30.06S
ST. CROIX      CLOUDY    81  73  78 E10       30.09
ST. MAARTEN    PTCLDY    81  73  78 E10       30.09S
ST. THOMAS     CLEAR     82  73  74 E8        30.09

$$





USA.gov is the U.S. government's official web portal to all federal, state and local government web resources and services.